• în România
  • Lista ţărilor
  • Pe 7 zile
  • Temperatura apei
  • Hartă satelitară
  • Meteo pe hartă
  • Widget-uri
  • user-avatar
    Intrare

    Meteo pe oră la Kraskow

    Astăzi, 24 Octombrie, Miercuri

    Timp Temperatura Precipitaţii Vânt Presiune Umiditate
    00:00 +8°C° 0.8 mm 10 m/s 736 mmHg 80%
    01:00 +8°C° 0.8 mm 10 m/s 736 mmHg 80%
    02:00 +8°C° 1 mm 9 m/s 736 mmHg 80%
    03:00 +8°C° 1 mm 9 m/s 736 mmHg 79%
    04:00 +7°C° 1 mm 9 m/s 736 mmHg 79%
    05:00 +6°C° 0.4 mm 8 m/s 736 mmHg 77%
    06:00 +6°C° 0.4 mm 8 m/s 737 mmHg 75%
    07:00 +5°C° 0.4 mm 8 m/s 738 mmHg 73%
    08:00 +6°C° 0 mm 8 m/s 738 mmHg 68%
    09:00 +6°C° 0 mm 9 m/s 739 mmHg 64%
    10:00 +6°C° 0 mm 10 m/s 740 mmHg 59%
    11:00 +7°C° 0.1 mm 10 m/s 740 mmHg 58%
    12:00 +7°C° 0.1 mm 9 m/s 740 mmHg 57%
    13:00 +7°C° 0.1 mm 9 m/s 741 mmHg 55%
    14:00 +7°C° 0 mm 9 m/s 741 mmHg 56%
    15:00 +6°C° 0 mm 8 m/s 742 mmHg 56%
    16:00 +6°C° 0 mm 7 m/s 742 mmHg 56%
    17:00 +5°C° 0 mm 6 m/s 743 mmHg 59%
    18:00 +6°C° 0 mm 5 m/s 744 mmHg 62%
    19:00 +5°C° 0 mm 5 m/s 744 mmHg 65%
    20:00 +5°C° 0 mm 5 m/s 745 mmHg 68%
    21:00 +4°C° 0 mm 4 m/s 745 mmHg 71%
    22:00 +4°C° 0 mm 4 m/s 745 mmHg 73%
    23:00 +4°C° 0 mm 4 m/s 745 mmHg 76%

    Mâine, 25 Octombrie, Joi

    Timp Temperatura Precipitaţii Vânt Presiune Umiditate
    00:00 +4°C° 0 mm 4 m/s 745 mmHg 78%
    01:00 +3°C° 0 mm 4 m/s 745 mmHg 80%
    02:00 +4°C° 0 mm 4 m/s 744 mmHg 81%
    03:00 +4°C° 0 mm 4 m/s 744 mmHg 82%
    04:00 +5°C° 0 mm 4 m/s 743 mmHg 83%
    05:00 +6°C° 0.7 mm 5 m/s 742 mmHg 85%
    06:00 +7°C° 0.7 mm 5 m/s 742 mmHg 87%
    07:00 +9°C° 0.7 mm 6 m/s 741 mmHg 88%
    08:00 +10°C° 0.2 mm 7 m/s 741 mmHg 85%
    09:00 +10°C° 0.2 mm 8 m/s 741 mmHg 81%
    10:00 +11°C° 0.2 mm 9 m/s 741 mmHg 77%
    11:00 +11°C° 0.1 mm 9 m/s 740 mmHg 76%
    12:00 +11°C° 0.1 mm 9 m/s 740 mmHg 76%
    13:00 +11°C° 0.1 mm 9 m/s 740 mmHg 75%
    14:00 +11°C° 0 mm 8 m/s 740 mmHg 76%
    15:00 +11°C° 0 mm 8 m/s 740 mmHg 78%
    16:00 +10°C° 0 mm 7 m/s 740 mmHg 79%
    17:00 +10°C° 0.1 mm 7 m/s 740 mmHg 79%
    18:00 +10°C° 0.1 mm 7 m/s 741 mmHg 80%
    19:00 +10°C° 0.1 mm 6 m/s 741 mmHg 80%
    20:00 +9°C° 0.1 mm 5 m/s 741 mmHg 81%
    21:00 +9°C° 0.1 mm 5 m/s 741 mmHg 82%
    22:00 +8°C° 0.1 mm 4 m/s 742 mmHg 84%
    23:00 +8°C° 0.1 mm 4 m/s 742 mmHg 84%

    Poimâine, 26 Octombrie, Vineri

    Timp Temperatura Precipitaţii Vânt Presiune Umiditate
    00:00 +8°C° 0.1 mm 4 m/s 742 mmHg 85%
    01:00 +8°C° 0.1 mm 4 m/s 742 mmHg 85%
    02:00 +8°C° 0 mm 3 m/s 741 mmHg 86%
    03:00 +8°C° 0 mm 3 m/s 741 mmHg 86%
    04:00 +8°C° 0 mm 3 m/s 741 mmHg 87%
    05:00 +8°C° 0 mm 3 m/s 741 mmHg 88%
    06:00 +9°C° 0 mm 3 m/s 741 mmHg 88%
    07:00 +9°C° 0 mm 3 m/s 740 mmHg 89%
    08:00 +10°C° 0 mm 4 m/s 740 mmHg 84%
    09:00 +11°C° 0 mm 4 m/s 740 mmHg 80%
    10:00 +12°C° 0 mm 5 m/s 740 mmHg 75%
    11:00 +12°C° 0 mm 5 m/s 739 mmHg 72%
    12:00 +13°C° 0 mm 6 m/s 738 mmHg 69%
    13:00 +13°C° 0 mm 6 m/s 738 mmHg 65%
    14:00 +13°C° 0 mm 6 m/s 737 mmHg 66%
    15:00 +12°C° 0 mm 5 m/s 737 mmHg 67%
    16:00 +12°C° 0 mm 5 m/s 736 mmHg 68%
    17:00 +10°C° 0 mm 5 m/s 736 mmHg 70%
    18:00 +9°C° 0 mm 5 m/s 736 mmHg 71%
    19:00 +9°C° 0 mm 5 m/s 736 mmHg 73%
    20:00 +8°C° 0 mm 5 m/s 736 mmHg 73%
    21:00 +8°C° 0 mm 6 m/s 736 mmHg 72%
    22:00 +7°C° 0 mm 6 m/s 736 mmHg 72%
    23:00 +7°C° 0 mm 6 m/s 737 mmHg 72%

    27 Octombrie, Sâmbătă

    Timp Temperatura Precipitaţii Vânt Presiune Umiditate
    00:00 +7°C° 0 mm 6 m/s 737 mmHg 71%
    01:00 +7°C° 0 mm 6 m/s 737 mmHg 71%
    02:00 +5°C° 0 mm 6 m/s 738 mmHg 70%
    03:00 +4°C° 0 mm 6 m/s 738 mmHg 70%
    04:00 +4°C° 0 mm 6 m/s 738 mmHg 69%
    05:00 +3°C° 0 mm 6 m/s 739 mmHg 71%
    06:00 +3°C° 0 mm 5 m/s 739 mmHg 74%
    07:00 +2°C° 0 mm 5 m/s 739 mmHg 76%
    08:00 +3°C° 0 mm 5 m/s 740 mmHg 72%
    09:00 +5°C° 0 mm 5 m/s 740 mmHg 69%
    10:00 +6°C° 0 mm 4 m/s 740 mmHg 65%
    11:00 +7°C° 0 mm 4 m/s 740 mmHg 63%
    12:00 +7°C° 0 mm 4 m/s 740 mmHg 60%
    13:00 +9°C° 0 mm 3 m/s 740 mmHg 58%
    14:00 +8°C° 0 mm 3 m/s 741 mmHg 59%
    15:00 +8°C° 0 mm 2 m/s 741 mmHg 61%
    16:00 +8°C° 0 mm 2 m/s 741 mmHg 63%
    17:00 +8°C° 0 mm 1 m/s 741 mmHg 65%
    18:00 +8°C° 0 mm 1 m/s 742 mmHg 67%
    19:00 +6°C° 0 mm 0 m/s 742 mmHg 70%
    20:00 +6°C° 0 mm 0 m/s 742 mmHg 71%
    21:00 +6°C° 0 mm 0 m/s 742 mmHg 72%
    22:00 +6°C° 0 mm 0 m/s 743 mmHg 73%
    23:00 +6°C° 0 mm 1 m/s 743 mmHg 74%

    28 Octombrie, Duminică

    Timp Temperatura Precipitaţii Vânt Presiune Umiditate
    00:00 +6°C° 0 mm 1 m/s 743 mmHg 75%
    01:00 +6°C° 0 mm 1 m/s 743 mmHg 76%
    02:00 +6°C° 0 mm 1 m/s 743 mmHg 77%
    03:00 +5°C° 0 mm 2 m/s 743 mmHg 78%
    04:00 +5°C° 0 mm 2 m/s 743 mmHg 79%
    05:00 +5°C° 0 mm 2 m/s 743 mmHg 79%
    06:00 +4°C° 0 mm 3 m/s 743 mmHg 80%
    07:00 +4°C° 0 mm 3 m/s 743 mmHg 80%
    08:00 +4°C° 0.1 mm 4 m/s 743 mmHg 78%
    09:00 +5°C° 0.1 mm 5 m/s 743 mmHg 75%
    10:00 +5°C° 0.1 mm 5 m/s 743 mmHg 73%
    11:00 +4°C° 0.9 mm 6 m/s 743 mmHg 74%
    12:00 +4°C° 0.9 mm 6 m/s 743 mmHg 76%
    13:00 +3°C° 0.9 mm 7 m/s 742 mmHg 77%
    14:00 +3°C° 1.2 mm 7 m/s 742 mmHg 79%
    15:00 +3°C° 1.2 mm 7 m/s 742 mmHg 81%
    16:00 +3°C° 1.2 mm 7 m/s 742 mmHg 82%
    17:00 +2°C° 0.5 mm 7 m/s 742 mmHg 84%
    18:00 +2°C° 0.5 mm 7 m/s 741 mmHg 85%
    19:00 +1°C° 0.5 mm 8 m/s 741 mmHg 86%
    20:00 +2°C° 0.7 mm 7 m/s 741 mmHg 86%
    21:00 +2°C° 0.7 mm 7 m/s 740 mmHg 87%
    22:00 +2°C° 0.7 mm 7 m/s 740 mmHg 88%
    23:00 +2°C° 2 mm 7 m/s 739 mmHg 89%

    29 Octombrie, Luni

    Timp Temperatura Precipitaţii Vânt Presiune Umiditate
    00:00 +2°C° 2 mm 7 m/s 738 mmHg 90%
    01:00 +2°C° 2 mm 6 m/s 738 mmHg 91%
    02:00 +2°C° 1.6 mm 6 m/s 737 mmHg 92%
    03:00 +3°C° 1.6 mm 6 m/s 736 mmHg 92%
    04:00 +3°C° 1.6 mm 6 m/s 736 mmHg 92%
    05:00 +3°C° 1.9 mm 6 m/s 735 mmHg 93%
    06:00 +3°C° 1.9 mm 5 m/s 735 mmHg 93%
    07:00 +3°C° 1.9 mm 5 m/s 735 mmHg 93%
    08:00 +5°C° 0.5 mm 4 m/s 734 mmHg 93%
    09:00 +5°C° 0.5 mm 4 m/s 734 mmHg 94%
    10:00 +5°C° 0.5 mm 4 m/s 734 mmHg 94%
    11:00 +5°C° 0.2 mm 3 m/s 734 mmHg 94%
    12:00 +7°C° 0.2 mm 3 m/s 734 mmHg 94%
    13:00 +7°C° 0.2 mm 3 m/s 733 mmHg 94%
    14:00 +7°C° 0.1 mm 3 m/s 733 mmHg 95%
    15:00 +7°C° 0.1 mm 2 m/s 733 mmHg 95%
    16:00 +8°C° 0.1 mm 2 m/s 733 mmHg 95%
    17:00 +8°C° 0 mm 2 m/s 733 mmHg 96%
    18:00 +8°C° 0.1 mm 2 m/s 733 mmHg 96%
    19:00 +8°C° 0.1 mm 2 m/s 733 mmHg 97%
    20:00 +9°C° 0 mm 2 m/s 733 mmHg 97%
    21:00 +9°C° 0 mm 2 m/s 733 mmHg 96%
    22:00 +10°C° 0 mm 3 m/s 733 mmHg 96%
    23:00 +10°C° 0 mm 3 m/s 733 mmHg 96%

    30 Octombrie, Marţi

    Timp Temperatura Precipitaţii Vânt Presiune Umiditate
    00:00 +10°C° 0 mm 3 m/s 732 mmHg 95%
    01:00 +10°C° 0 mm 3 m/s 732 mmHg 95%
    02:00 +11°C° 0.4 mm 3 m/s 732 mmHg 95%
    03:00 +11°C° 0.4 mm 3 m/s 731 mmHg 94%
    04:00 +11°C° 0.4 mm 3 m/s 731 mmHg 94%
    05:00 +11°C° 0.2 mm 4 m/s 731 mmHg 92%
    06:00 +12°C° 0.2 mm 5 m/s 731 mmHg 90%
    07:00 +12°C° 0.2 mm 5 m/s 731 mmHg 88%
    08:00 +13°C° 0.1 mm 5 m/s 732 mmHg 85%
    09:00 +13°C° 0.1 mm 6 m/s 732 mmHg 82%
    10:00 +13°C° 0.1 mm 6 m/s 733 mmHg 79%
    11:00 +13°C° 0 mm 5 m/s 734 mmHg 76%
    12:00 +13°C° 0 mm 4 m/s 734 mmHg 73%
    13:00 +13°C° 0 mm 3 m/s 734 mmHg 70%
    14:00 +12°C° 0 mm 3 m/s 735 mmHg 72%
    15:00 +12°C° 0 mm 2 m/s 735 mmHg 75%
    16:00 +10°C° 0 mm 2 m/s 735 mmHg 78%
    17:00 +10°C° 0 mm 2 m/s 736 mmHg 79%
    18:00 +9°C° 0 mm 2 m/s 736 mmHg 80%
    19:00 +8°C° 0 mm 2 m/s 737 mmHg 81%
    20:00 +8°C° 0 mm 2 m/s 737 mmHg 80%
    21:00 +8°C° 0 mm 2 m/s 737 mmHg 80%
    22:00 +7°C° 0 mm 2 m/s 738 mmHg 79%
    23:00 +7°C° 0 mm 3 m/s 738 mmHg 79%
    Arată mai mult